This demonstration page uses our WeatherBlox Daily Observations layout. Learn more.

36.17497, -115.13722

Hourly Observations for January 23, 2021

Temp ( °F °C ) Dew Point ( °F °C ) Humidity (%) Winds ( mph kmh ) Pressure ( in mb ) Visibility ( mi km ) Precip ( " mm )
12:53 am 00:53 Clear 50 10 25 -3.9 38 38 WSW 21 33 29.74 1007 10 16.0934 0 0
1:53 am 01:53 Clear 49 9.4 25 -3.9 39 39 SW 16 26 29.74 1007 10 16.0934 0 0
2:53 am 02:53 Clear 48 8.9 24 -4.4 39 39 W 9 15 29.76 1008 10 16.0934 0 0
3:53 am 03:53 Clear 47 8.3 25 -3.9 42 42 SSW 6 9 29.78 1008 10 16.0934 0 0
4:53 am 04:53 Clear 45 7.2 25 -3.9 46 46 VRB 3 6 29.8 1009 10 16.0934 0 0
5:53 am 05:53 Clear 41 5 24 -4.4 51 51 NW 6 9 29.83 1010 10 16.0934 0 0
6:53 am 06:53 Sunny 42 5.6 26 -3.3 53 53 N 3 6 29.85 1011 10 16.0934 0 0
7:53 am 07:53 Sunny 43 6.1 26 -3.3 51 51 W 3 6 29.86 1011 10 16.0934 0 0
8:53 am 08:53 Sunny 47 8.3 26 -3.3 44 44 N 6 9 29.87 1012 10 16.0934 0 0
9:53 am 09:53 Sunny 50 10 26 -3.3 39 39 N 3 6 29.88 1012 10 16.0934 0 0
10:53 am 10:53 Sunny 50 10 26 -3.3 39 39 Calm 29.88 1012 10 16.0934 0 0
11:53 am 11:53 Sunny 52 11.1 26 -3.3 37 37 VRB 3 6 29.85 1011 10 16.0934 0 0
12:53 pm 12:53 Sunny 54 12.2 25 -3.9 33 33 E 6 9 29.84 1010 10 16.0934 0 0
1:53 pm 13:53 Mostly Sunny 54 12.2 26 -3.3 34 34 E 6 9 29.83 1010 10 16.0934 0 0
2:53 pm 14:53 Sunny 54 12.2 25 -3.9 33 33 E 5 7 29.84 1010 10 16.0934 0 0
3:53 pm 15:53 Mostly Cloudy 54 12.2 22 -5.6 29 29 E 7 11 29.84 1010 10 16.0934 0 0
4:53 pm 16:53 Cloudy 54 12.2 24 -4.4 31 31 E 7 11 29.85 1011 10 16.0934 0 0
5:53 pm 17:53 Cloudy 51 10.6 28 -2.2 41 41 ESE 9 15 29.87 1012 10 16.0934 0 0
6:53 pm 18:53 Cloudy 52 11.1 27 -2.8 38 38 NE 7 11 29.87 1011 10 16.0934 0 0
7:53 pm 19:53 Cloudy 51 10.6 31 -0.6 46 46 W 3 6 29.86 1011 10 16.0934 0.001 0.001
8:53 pm 20:53 Cloudy 50 10 32 0 50 50 Calm 29.86 1011 10 16.0934 0 0
9:53 pm 21:53 Clear 50 10 31 -0.6 48 48 Calm 29.86 1011 10 16.0934 0 0
10:53 pm 22:53 Clear 48 8.9 30 -1.1 50 50 Calm 29.86 1011 10 16.0934 0 0
11:53 pm 23:53 Clear 44 6.7 27 -2.8 51 51 NNW 7 11 29.85 1011 10 16.0934 0 0

Powered by AerisWeather